Preview of NWS' New Version of Forecast
This preview is not operational and should not be used for support decisions.

Regional Weather Roundup (RWR)

Issued by National Weather Service (NWS)

                            
000
ASUS43 KDTX 210910
RWRMI 
MICHIGAN HOURLY REGIONAL WEATHER ROUNDUP
NATIONAL WEATHER SERVICE DETROIT/PONTIAC MI
400 AM EST THU FEB 21 2019

NOTE: "FAIR" INDICATES FEW OR NO CLOUDS BELOW 12,000 FEET WITH NO
SIGNIFICANT WEATHER AND/OR OBSTRUCTION TO VISIBILITY.

MIZ047>049-052>055-059>063-066>070-074>076-081>083-211000-
SOUTHEAST LOWER MICHIGAN
  
CITY           SKY/WX    TMP DP  RH WIND       PRES   REMARKS
ADRIAN         CLOUDY    35  26  69 W9G23     29.95R WCI  28          
ALMA           CLOUDY    35  26  70 W20G25    29.85R WCI  24          
ANN ARBOR      CLOUDY    35  28  75 SW15      29.91R WCI  25          
BAD AXE        CLOUDY    35  30  82 W15G24    29.80R WCI  25          
CARO           CLOUDY    35  30  82 SW15G23   29.83R WCI  25          
DETROIT CITY   CLOUDY    36  26  67 W13G25    29.90R WCI  27          
DETROIT        CLOUDY    36  26  67 W17G24    29.92R WCI  26          
FLINT          CLOUDY    35  27  72 W17G23    29.87R WCI  25          
GROSSE ILE     CLOUDY    36  30  78 W10       29.91R WCI  28          
HILLSDALE      CLOUDY    34  26  72 W12G17    29.92R WCI  26          
HOWELL         CLOUDY    35  28  76 W12       29.88S WCI  26          

CITY           SKY/WX    TMP DP  RH WIND       PRES   REMARKS
JACKSON        CLOUDY    35  27  72 SW14      29.91R WCI  26          
LAMBERTVILLE   CLOUDY    36  29  77 W12G17    29.95S WCI  28          
LANSING        CLOUDY    35  26  69 W16       29.89R WCI  25          
LAPEER         CLOUDY    36  26  68 W10G23    29.85R WCI  28          
MASON          CLOUDY    35  29  78 W10G17    29.89S WCI  27          
MONROE         CLOUDY    35  32  87 W13       29.93R WCI  26          
MT. CLEMENS    CLOUDY    37  31  82 SW14      29.87R WCI  28          
PONTIAC        CLOUDY    35  28  75 W20G25    29.86R WCI  24          
PORT HOPE        N/A     36  28  73 W10G20    29.77R WCI  28          
PORT HURON     CLOUDY    36  28  75 W8        29.88R WCI  29          
TRI CITIES     CLOUDY    35  28  75 W17G24    29.83R WCI  25          
MIDLAND        CLOUDY    36  27  70 W10G18    29.82R WCI  28          
TROY           CLOUDY    36  27  67 SW10G21   29.90S WCI  29          
SAGINAW HB     CLOUDY    36  28  75 SW14      29.83R WCI  27          
$$
MIZ043>046-050>051-056>058-064>065-071>073-077>080-211000-
SOUTHWEST LOWER MICHIGAN
  
CITY           SKY/WX    TMP DP  RH WIND       PRES   REMARKS
BATTLE CREEK   CLOUDY    34  25  69 W18G30    29.93R WCI  23          
BENTON HARBOR  CLOUDY    33  23  66 W20G35    29.98R WCI  21          
BIG RAPIDS     CLOUDY    32  24  72 W10       29.83R WCI  24          
COLDWATER      CLOUDY    35  28  75 W16G23    29.94R WCI  25          
FREMONT        CLOUDY    33  21  61 W12G17    29.87R WCI  25          
HOLLAND        CLOUDY    34  23  64 W25G36    29.92R WCI  21          
GRAND RAPIDS   CLOUDY    34  24  67 W21G29    29.90R WCI  22          
IONIA          CLOUDY    34  25  69 W21       29.87R WCI  22          
KALAMAZOO      CLOUDY    34  24  67 W12G23    29.94R WCI  25          
LUDINGTON      CLOUDY    33  24  70 W17       29.84R WCI  22          
MARSHALL       CLOUDY    34  25  69 W17G32    29.92R WCI  23          
MOUNT PLEASANT CLOUDY    34  26  70 W12       29.83R WCI  26          
MUSKEGON       MOCLDY    34  24  67 W14G24    29.89R WCI  25          
SOUTH HAVEN    CLOUDY    35  26  70 W14G22    29.96R WCI  25          
$$
MIZ016>042-211000-
NORTHERN LOWER MICHIGAN
  
CITY           SKY/WX    TMP DP  RH WIND       PRES   REMARKS
ALPENA         CLOUDY    34  25  69 W15G24    29.70R WCI  24          
BEAVER ISLAND  FAIR      28  25  88 W21       29.72R WCI  14          
BELLAIRE       CLOUDY    33  26  72 SW7       29.77R WCI  27          
CADILLAC       FLURRIES  30  23  75 SW16      29.76R WCI  19          
CHARLEVOIX     FAIR      32  26  77 W21G32    29.76R HAZE    WCI  20  
FRANKFORT      CLOUDY    33  23  67 SW14G29   29.80R WCI  23          
GAYLORD        LGT SNOW  29  25  85 W17G32    29.71R FOG     WCI  17  
GRAYLING       MIX PCPN  30  23  74 W16G26    29.73R WCI  19          
HARBOR SPRINGS CLOUDY    31  28  89 W15G25    29.71R WCI  20          
HOUGHTON LAKE  CLOUDY    31  23  72 W13G32    29.76R WCI  21          
MANISTEE       FLURRIES  33  24  69 W14G21    29.82R WCI  23          
OSCODA         CLOUDY    33  30  89 W16       29.75R WCI  23          
PELLSTON       CLOUDY    31  25  78 W18G46    29.69R HAZE    WCI  19  
ROGERS CITY    CLOUDY    32  25  76 W20G28    29.69R WCI  20          
TRAVERSE CITY  CLOUDY    34  24  67 W14G23    29.76R WCI  25          
$$
MIZ007>008-015-211000-
EASTERN UPPER MICHIGAN
  
CITY           SKY/WX    TMP DP  RH WIND       PRES   REMARKS
KINROSS        CLOUDY    24  22  91 SW9       29.65R WCI  14          
MACKINAC ISLAN CLOUDY    28  28 100 W21G30    29.67R FOG     WCI  15  
NEWBERRY       CLOUDY    26  24  92 MISG      29.65R                  
S. S. MARIE    CLOUDY    24  20  84 SW3       29.63R                  
MUNISING         N/A     22  18  85 SW6       29.68R WCI  14          
$$
MIZ004>006-011>014-085-211000-
CENTRAL UPPER MICHIGAN
  
CITY           SKY/WX    TMP DP  RH WIND       PRES   REMARKS
MANISTIQUE     FAIR      24  19  80 W7        29.69S WCI  16          
ESCANABA       FAIR      19  17  92 W6        29.73R WCI  11          
MENOMINEE      FLURRIES  29  24  82 W10G16    29.77R WCI  20          
SAWYER-GWINN   FAIR      19  16  90 W5        29.65R WCI  12          
$$
MIZ001>003-009>011-084-211000-
WESTERN UPPER MICHIGAN
  
CITY           SKY/WX    TMP DP  RH WIND       PRES   REMARKS
IRON MOUNTAIN  FAIR      23  19  85 W5        29.68R WCI  17          
HOUGHTON       CLOUDY    22  18  85 W13       29.64R WCI  10          
COPPER HARBOR    N/A     25  21  85 VRB3      29.64R                  
IRONWOOD       FLURRIES  23  20  88 W13       29.71  WCI  11          
$$

ABBREVIATIONS USED IN REMARKS
   TC - TEMPERATURE IN CELSIUS
  WCI - WIND CHILL INDEX
   HX - HEAT INDEX
  VSB - VISIBILITY